Year,Month,Day,Hour,Minute,Value (Times are PST for insolation in W/m^2)
2015,12,25,00,00,0.00
2015,12,25,00,01,0.00
2015,12,25,00,02,0.00
2015,12,25,00,03,0.00
2015,12,25,00,04,0.00
2015,12,25,00,05,0.00
2015,12,25,00,06,0.00
2015,12,25,00,07,0.00
2015,12,25,00,08,0.00
2015,12,25,00,09,0.00
2015,12,25,00,10,0.00
2015,12,25,00,11,0.00
2015,12,25,00,12,0.00
2015,12,25,00,13,0.00
2015,12,25,00,14,0.00
2015,12,25,00,15,0.00
2015,12,25,00,16,0.00
2015,12,25,00,17,0.00
2015,12,25,00,18,0.00
2015,12,25,00,19,0.00
2015,12,25,00,20,0.00
2015,12,25,00,21,0.00
2015,12,25,00,22,0.00
2015,12,25,00,23,0.00
2015,12,25,00,24,0.00
2015,12,25,00,25,0.00
2015,12,25,00,26,0.00
2015,12,25,00,27,0.00
2015,12,25,00,28,0.00
2015,12,25,00,29,0.00
2015,12,25,00,30,0.00
2015,12,25,00,31,0.00
2015,12,25,00,32,0.00
2015,12,25,00,33,0.00
2015,12,25,00,34,0.00
2015,12,25,00,35,0.00
2015,12,25,00,36,0.00
2015,12,25,00,37,0.00
2015,12,25,00,38,0.00
2015,12,25,00,39,0.00
2015,12,25,00,40,0.00
2015,12,25,00,41,0.00
2015,12,25,00,42,0.00
2015,12,25,00,43,0.00
2015,12,25,00,44,0.00
2015,12,25,00,45,0.00
2015,12,25,00,46,0.00
2015,12,25,00,47,0.00
2015,12,25,00,48,0.00
2015,12,25,00,49,0.00
2015,12,25,00,50,0.00
2015,12,25,00,51,0.00
2015,12,25,00,52,0.00
2015,12,25,00,53,0.00
2015,12,25,00,54,0.00
2015,12,25,00,55,0.00
2015,12,25,00,56,0.00
2015,12,25,00,57,0.00
2015,12,25,00,58,0.00
2015,12,25,00,59,0.00
2015,12,25,01,00,0.00
2015,12,25,01,01,0.00
2015,12,25,01,02,0.00
2015,12,25,01,03,0.00
2015,12,25,01,04,0.00
2015,12,25,01,05,0.00
2015,12,25,01,06,0.00
2015,12,25,01,07,0.00
2015,12,25,01,08,0.00
2015,12,25,01,09,0.00
2015,12,25,01,10,0.00
2015,12,25,01,11,0.00
2015,12,25,01,12,0.00
2015,12,25,01,13,0.00
2015,12,25,01,14,0.00
2015,12,25,01,15,0.00
2015,12,25,01,16,0.00
2015,12,25,01,17,0.00
2015,12,25,01,18,0.00
2015,12,25,01,19,0.00
2015,12,25,01,20,0.00
2015,12,25,01,21,0.00
2015,12,25,01,22,0.00
2015,12,25,01,23,0.00
2015,12,25,01,24,0.00
2015,12,25,01,25,0.00
2015,12,25,01,26,0.00
2015,12,25,01,27,0.00
2015,12,25,01,28,0.00
2015,12,25,01,29,0.00
2015,12,25,01,30,0.00
2015,12,25,01,31,0.00
2015,12,25,01,32,0.00
2015,12,25,01,33,0.00
2015,12,25,01,34,0.00
2015,12,25,01,35,0.00
2015,12,25,01,36,0.00
2015,12,25,01,37,0.00
2015,12,25,01,38,0.00
2015,12,25,01,39,0.00
2015,12,25,01,40,0.00
2015,12,25,01,41,0.00
2015,12,25,01,42,0.00
2015,12,25,01,43,0.00
2015,12,25,01,44,0.00
2015,12,25,01,45,0.00
2015,12,25,01,46,0.00
2015,12,25,01,47,0.00
2015,12,25,01,48,0.00
2015,12,25,01,49,0.00
2015,12,25,01,50,0.00
2015,12,25,01,51,0.00
2015,12,25,01,52,0.00
2015,12,25,01,53,0.00
2015,12,25,01,54,0.00
2015,12,25,01,55,0.00
2015,12,25,01,56,0.00
2015,12,25,01,57,0.00
2015,12,25,01,58,0.00
2015,12,25,01,59,0.00
2015,12,25,02,00,0.00
2015,12,25,02,01,0.00
2015,12,25,02,02,0.00
2015,12,25,02,03,0.00
2015,12,25,02,04,0.00
2015,12,25,02,05,0.00
2015,12,25,02,06,0.00
2015,12,25,02,07,0.00
2015,12,25,02,08,0.00
2015,12,25,02,09,0.00
2015,12,25,02,10,0.00
2015,12,25,02,11,0.00
2015,12,25,02,12,0.00
2015,12,25,02,13,0.00
2015,12,25,02,14,0.00
2015,12,25,02,15,0.00
2015,12,25,02,16,0.00
2015,12,25,02,17,0.00
2015,12,25,02,18,0.00
2015,12,25,02,19,0.00
2015,12,25,02,20,0.00
2015,12,25,02,21,0.00
2015,12,25,02,22,0.00
2015,12,25,02,23,0.00
2015,12,25,02,24,0.00
2015,12,25,02,25,0.00
2015,12,25,02,26,0.00
2015,12,25,02,27,0.00
2015,12,25,02,28,0.00
2015,12,25,02,29,0.00
2015,12,25,02,30,0.00
2015,12,25,02,31,0.00
2015,12,25,02,32,0.00
2015,12,25,02,33,0.00
2015,12,25,02,34,0.00
2015,12,25,02,35,0.00
2015,12,25,02,36,0.00
2015,12,25,02,37,0.00
2015,12,25,02,38,0.00
2015,12,25,02,39,0.00
2015,12,25,02,40,0.00
2015,12,25,02,41,0.00
2015,12,25,02,42,0.00
2015,12,25,02,43,0.00
2015,12,25,02,44,0.00
2015,12,25,02,45,0.00
2015,12,25,02,46,0.00
2015,12,25,02,47,0.00
2015,12,25,02,48,0.00
2015,12,25,02,49,0.00
2015,12,25,02,50,0.00
2015,12,25,02,51,0.00
2015,12,25,02,52,0.00
2015,12,25,02,53,0.00
2015,12,25,02,54,0.00
2015,12,25,02,55,0.00
2015,12,25,02,56,0.00
2015,12,25,02,57,0.00
2015,12,25,02,58,0.00
2015,12,25,02,59,0.00
2015,12,25,03,00,0.00
2015,12,25,03,01,0.00
2015,12,25,03,02,0.00
2015,12,25,03,03,0.00
2015,12,25,03,04,0.00
2015,12,25,03,05,0.00
2015,12,25,03,06,0.00
2015,12,25,03,07,0.00
2015,12,25,03,08,0.00
2015,12,25,03,09,0.00
2015,12,25,03,10,0.00
2015,12,25,03,11,0.00
2015,12,25,03,12,0.00
2015,12,25,03,13,0.00
2015,12,25,03,14,0.00
2015,12,25,03,15,0.00
2015,12,25,03,16,0.00
2015,12,25,03,17,0.00
2015,12,25,03,18,0.00
2015,12,25,03,19,0.00
2015,12,25,03,20,0.00
2015,12,25,03,21,0.00
2015,12,25,03,22,0.00
2015,12,25,03,23,0.00
2015,12,25,03,24,0.00
2015,12,25,03,25,0.00
2015,12,25,03,26,0.00
2015,12,25,03,27,0.00
2015,12,25,03,28,0.00
2015,12,25,03,29,0.00
2015,12,25,03,30,0.00
2015,12,25,03,31,0.00
2015,12,25,03,32,0.00
2015,12,25,03,33,0.00
2015,12,25,03,34,0.00
2015,12,25,03,35,0.00
2015,12,25,03,36,0.00
2015,12,25,03,37,0.00
2015,12,25,03,38,0.00
2015,12,25,03,39,0.00
2015,12,25,03,40,0.00
2015,12,25,03,41,0.00
2015,12,25,03,42,0.00
2015,12,25,03,43,0.00
2015,12,25,03,44,0.00
2015,12,25,03,45,0.00
2015,12,25,03,46,0.00
2015,12,25,03,47,0.00
2015,12,25,03,48,0.00
2015,12,25,03,49,0.00
2015,12,25,03,50,0.00
2015,12,25,03,51,0.00
2015,12,25,03,52,0.00
2015,12,25,03,53,0.00
2015,12,25,03,54,0.00
2015,12,25,03,55,0.00
2015,12,25,03,56,0.00
2015,12,25,03,57,0.00
2015,12,25,03,58,0.00
2015,12,25,03,59,0.00
2015,12,25,04,00,0.00
2015,12,25,04,01,0.00
2015,12,25,04,02,0.00
2015,12,25,04,03,0.00
2015,12,25,04,04,0.00
2015,12,25,04,05,0.00
2015,12,25,04,06,0.00
2015,12,25,04,07,0.00
2015,12,25,04,08,0.00
2015,12,25,04,09,0.00
2015,12,25,04,10,0.00
2015,12,25,04,11,0.00
2015,12,25,04,12,0.00
2015,12,25,04,13,0.00
2015,12,25,04,14,0.00
2015,12,25,04,15,0.00
2015,12,25,04,16,0.00
2015,12,25,04,17,0.00
2015,12,25,04,18,0.00
2015,12,25,04,19,0.00
2015,12,25,04,20,0.00
2015,12,25,04,21,0.00
2015,12,25,04,22,0.00
2015,12,25,04,23,0.00
2015,12,25,04,24,0.00
2015,12,25,04,25,0.00
2015,12,25,04,26,0.00
2015,12,25,04,27,0.00
2015,12,25,04,28,0.00
2015,12,25,04,29,0.00
2015,12,25,04,30,0.00
2015,12,25,04,31,0.00
2015,12,25,04,32,0.00
2015,12,25,04,33,0.00
2015,12,25,04,34,0.00
2015,12,25,04,35,0.00
2015,12,25,04,36,0.00
2015,12,25,04,37,0.00
2015,12,25,04,38,0.00
2015,12,25,04,39,0.00
2015,12,25,04,40,0.00
2015,12,25,04,41,0.00
2015,12,25,04,42,0.00
2015,12,25,04,43,0.00
2015,12,25,04,44,0.00
2015,12,25,04,45,0.00
2015,12,25,04,46,0.00
2015,12,25,04,47,0.00
2015,12,25,04,48,0.00
2015,12,25,04,49,0.00
2015,12,25,04,50,0.00
2015,12,25,04,51,0.00
2015,12,25,04,52,0.00
2015,12,25,04,53,0.00
2015,12,25,04,54,0.00
2015,12,25,04,55,0.00
2015,12,25,04,56,0.00
2015,12,25,04,57,0.00
2015,12,25,04,58,0.00
2015,12,25,04,59,0.00
2015,12,25,05,00,0.00
2015,12,25,05,01,0.00
2015,12,25,05,02,0.00
2015,12,25,05,03,0.00
2015,12,25,05,04,0.00
2015,12,25,05,05,0.00
2015,12,25,05,06,0.00
2015,12,25,05,07,0.00
2015,12,25,05,08,0.00
2015,12,25,05,09,0.00
2015,12,25,05,10,0.00
2015,12,25,05,11,0.00
2015,12,25,05,12,0.00
2015,12,25,05,13,0.00
2015,12,25,05,14,0.00
2015,12,25,05,15,0.00
2015,12,25,05,16,0.00
2015,12,25,05,17,0.00
2015,12,25,05,18,0.00
2015,12,25,05,19,0.00
2015,12,25,05,20,0.00
2015,12,25,05,21,0.00
2015,12,25,05,22,0.00
2015,12,25,05,23,0.00
2015,12,25,05,24,0.00
2015,12,25,05,25,0.00
2015,12,25,05,26,0.00
2015,12,25,05,27,0.00
2015,12,25,05,28,0.00
2015,12,25,05,29,0.00
2015,12,25,05,30,0.00
2015,12,25,05,31,0.00
2015,12,25,05,32,0.00
2015,12,25,05,33,0.00
2015,12,25,05,34,0.00
2015,12,25,05,35,0.00
2015,12,25,05,36,0.00
2015,12,25,05,37,0.00
2015,12,25,05,38,0.00
2015,12,25,05,39,0.00
2015,12,25,05,40,0.00
2015,12,25,05,41,0.00
2015,12,25,05,42,0.00
2015,12,25,05,43,0.00
2015,12,25,05,44,0.00
2015,12,25,05,45,0.00
2015,12,25,05,46,0.00
2015,12,25,05,47,0.00
2015,12,25,05,48,0.00
2015,12,25,05,49,0.00
2015,12,25,05,50,0.00
2015,12,25,05,51,0.00
2015,12,25,05,52,0.00
2015,12,25,05,53,0.00
2015,12,25,05,54,0.00
2015,12,25,05,55,0.00
2015,12,25,05,56,0.00
2015,12,25,05,57,0.00
2015,12,25,05,58,0.00
2015,12,25,05,59,0.00
2015,12,25,06,00,0.00
2015,12,25,06,01,0.00
2015,12,25,06,02,0.00
2015,12,25,06,03,0.00
2015,12,25,06,04,0.00
2015,12,25,06,05,0.00
2015,12,25,06,06,0.00
2015,12,25,06,07,0.00
2015,12,25,06,08,0.00
2015,12,25,06,09,0.00
2015,12,25,06,10,0.00
2015,12,25,06,11,0.00
2015,12,25,06,12,0.00
2015,12,25,06,13,0.00
2015,12,25,06,14,0.00
2015,12,25,06,15,0.00
2015,12,25,06,16,0.00
2015,12,25,06,17,0.00
2015,12,25,06,18,0.00
2015,12,25,06,19,0.00
2015,12,25,06,20,0.00
2015,12,25,06,21,0.00
2015,12,25,06,22,0.00
2015,12,25,06,23,0.00
2015,12,25,06,24,0.00
2015,12,25,06,25,0.00
2015,12,25,06,26,0.00
2015,12,25,06,27,0.00
2015,12,25,06,28,0.00
2015,12,25,06,29,0.00
2015,12,25,06,30,0.00
2015,12,25,06,31,0.00
2015,12,25,06,32,0.00
2015,12,25,06,33,0.00
2015,12,25,06,34,0.00
2015,12,25,06,35,0.00
2015,12,25,06,36,0.00
2015,12,25,06,37,0.00
2015,12,25,06,38,0.00
2015,12,25,06,39,0.00
2015,12,25,06,40,0.00
2015,12,25,06,41,0.00
2015,12,25,06,42,0.00
2015,12,25,06,43,0.00
2015,12,25,06,44,0.00
2015,12,25,06,45,0.00
2015,12,25,06,46,0.00
2015,12,25,06,47,0.00
2015,12,25,06,48,0.00
2015,12,25,06,49,0.00
2015,12,25,06,50,0.00
2015,12,25,06,51,0.00
2015,12,25,06,52,0.00
2015,12,25,06,53,0.00
2015,12,25,06,54,0.00
2015,12,25,06,55,0.00
2015,12,25,06,56,0.00
2015,12,25,06,57,0.00
2015,12,25,06,58,0.00
2015,12,25,06,59,0.00
2015,12,25,07,00,0.00
2015,12,25,07,01,0.00
2015,12,25,07,02,0.00
2015,12,25,07,03,0.00
2015,12,25,07,04,0.00
2015,12,25,07,05,0.00
2015,12,25,07,06,0.00
2015,12,25,07,07,0.00
2015,12,25,07,08,0.00
2015,12,25,07,09,0.00
2015,12,25,07,10,0.00
2015,12,25,07,11,0.00
2015,12,25,07,12,0.00
2015,12,25,07,13,0.00
2015,12,25,07,14,0.00
2015,12,25,07,15,0.00
2015,12,25,07,16,0.00
2015,12,25,07,17,0.00
2015,12,25,07,18,0.00
2015,12,25,07,19,0.00
2015,12,25,07,20,0.00
2015,12,25,07,21,0.00
2015,12,25,07,22,0.00
2015,12,25,07,23,0.00
2015,12,25,07,24,0.00
2015,12,25,07,25,0.00
2015,12,25,07,26,0.00
2015,12,25,07,27,0.00
2015,12,25,07,28,0.00
2015,12,25,07,29,0.00
2015,12,25,07,30,0.00
2015,12,25,07,31,0.00
2015,12,25,07,32,0.00
2015,12,25,07,33,0.00
2015,12,25,07,34,0.00
2015,12,25,07,35,0.00
2015,12,25,07,36,0.00
2015,12,25,07,37,0.00
2015,12,25,07,38,0.00
2015,12,25,07,39,0.00
2015,12,25,07,40,0.00
2015,12,25,07,41,0.00
2015,12,25,07,42,0.00
2015,12,25,07,43,0.00
2015,12,25,07,44,0.00
2015,12,25,07,45,0.00
2015,12,25,07,46,0.00
2015,12,25,07,47,0.00
2015,12,25,07,48,0.00
2015,12,25,07,49,0.00
2015,12,25,07,50,0.00
2015,12,25,07,51,0.00
2015,12,25,07,52,0.00
2015,12,25,07,53,0.00
2015,12,25,07,54,0.00
2015,12,25,07,55,0.00
2015,12,25,07,56,0.00
2015,12,25,07,57,0.00
2015,12,25,07,58,0.00
2015,12,25,07,59,0.00
2015,12,25,08,00,0.00
2015,12,25,08,01,0.00
2015,12,25,08,02,0.00
2015,12,25,08,03,0.00
2015,12,25,08,04,0.00
2015,12,25,08,05,0.00
2015,12,25,08,06,0.00
2015,12,25,08,07,0.00
2015,12,25,08,08,0.00
2015,12,25,08,09,0.00
2015,12,25,08,10,0.00
2015,12,25,08,11,0.00
2015,12,25,08,12,0.00
2015,12,25,08,13,0.00
2015,12,25,08,14,0.00
2015,12,25,08,15,0.00
2015,12,25,08,16,0.00
2015,12,25,08,17,0.00
2015,12,25,08,18,0.00
2015,12,25,08,19,0.00
2015,12,25,08,20,0.00
2015,12,25,08,21,0.00
2015,12,25,08,22,0.00
2015,12,25,08,23,0.00
2015,12,25,08,24,0.00
2015,12,25,08,25,3.90
2015,12,25,08,26,5.00
2015,12,25,08,27,5.00
2015,12,25,08,28,5.00
2015,12,25,08,29,5.00
2015,12,25,08,30,5.00
2015,12,25,08,31,5.00
2015,12,25,08,32,5.00
2015,12,25,08,33,5.00
2015,12,25,08,34,5.00
2015,12,25,08,35,5.50
2015,12,25,08,36,7.00
2015,12,25,08,37,7.00
2015,12,25,08,38,7.00
2015,12,25,08,39,7.00
2015,12,25,08,40,7.00
2015,12,25,08,41,7.00
2015,12,25,08,42,7.00
2015,12,25,08,43,7.00
2015,12,25,08,44,8.10
2015,12,25,08,45,9.00
2015,12,25,08,46,9.00
2015,12,25,08,47,9.00
2015,12,25,08,48,9.00
2015,12,25,08,49,9.60
2015,12,25,08,50,11.00
2015,12,25,08,51,11.00
2015,12,25,08,52,11.00
2015,12,25,08,53,11.00
2015,12,25,08,54,11.00
2015,12,25,08,55,11.00
2015,12,25,08,56,11.00
2015,12,25,08,57,11.40
2015,12,25,08,58,12.00
2015,12,25,08,59,12.00
2015,12,25,09,00,15.10
2015,12,25,09,01,20.40
2015,12,25,09,02,28.60
2015,12,25,09,03,30.40
2015,12,25,09,04,26.00
2015,12,25,09,05,27.10
2015,12,25,09,06,31.10
2015,12,25,09,07,37.70
2015,12,25,09,08,40.00
2015,12,25,09,09,41.60
2015,12,25,09,10,37.20
2015,12,25,09,11,29.70
2015,12,25,09,12,25.50
2015,12,25,09,13,28.70
2015,12,25,09,14,33.90
2015,12,25,09,15,43.60
2015,12,25,09,16,53.40
2015,12,25,09,17,74.10
2015,12,25,09,18,90.60
2015,12,25,09,19,83.90
2015,12,25,09,20,66.30
2015,12,25,09,21,47.10
2015,12,25,09,22,28.00
2015,12,25,09,23,25.40
2015,12,25,09,24,50.40
2015,12,25,09,25,102.30
2015,12,25,09,26,138.60
2015,12,25,09,27,124.40
2015,12,25,09,28,114.00
2015,12,25,09,29,142.40
2015,12,25,09,30,139.90
2015,12,25,09,31,113.70
2015,12,25,09,32,112.90
2015,12,25,09,33,130.30
2015,12,25,09,34,145.80
2015,12,25,09,35,158.00
2015,12,25,09,36,166.20
2015,12,25,09,37,182.60
2015,12,25,09,38,193.30
2015,12,25,09,39,197.70
2015,12,25,09,40,200.60
2015,12,25,09,41,205.10
2015,12,25,09,42,210.10
2015,12,25,09,43,212.80
2015,12,25,09,44,214.60
2015,12,25,09,45,218.80
2015,12,25,09,46,221.80
2015,12,25,09,47,225.10
2015,12,25,09,48,228.30
2015,12,25,09,49,231.30
2015,12,25,09,50,236.40
2015,12,25,09,51,243.70
2015,12,25,09,52,248.80
2015,12,25,09,53,252.60
2015,12,25,09,54,256.70
2015,12,25,09,55,259.30
2015,12,25,09,56,263.10
2015,12,25,09,57,267.00
2015,12,25,09,58,272.90
2015,12,25,09,59,278.90
2015,12,25,10,00,282.60
2015,12,25,10,01,286.00
2015,12,25,10,02,287.70
2015,12,25,10,03,292.80
2015,12,25,10,04,296.70
2015,12,25,10,05,301.10
2015,12,25,10,06,303.60
2015,12,25,10,07,308.40
2015,12,25,10,08,311.10
2015,12,25,10,09,314.30
2015,12,25,10,10,315.00
2015,12,25,10,11,315.90
2015,12,25,10,12,322.10
2015,12,25,10,13,324.00
2015,12,25,10,14,328.20
2015,12,25,10,15,334.10
2015,12,25,10,16,339.90
2015,12,25,10,17,342.60
2015,12,25,10,18,345.70
2015,12,25,10,19,348.30
2015,12,25,10,20,350.50
2015,12,25,10,21,347.90
2015,12,25,10,22,342.00
2015,12,25,10,23,343.00
2015,12,25,10,24,344.60
2015,12,25,10,25,345.00
2015,12,25,10,26,346.60
2015,12,25,10,27,350.50
2015,12,25,10,28,352.40
2015,12,25,10,29,353.00
2015,12,25,10,30,353.00
2015,12,25,10,31,353.00
2015,12,25,10,32,353.10
2015,12,25,10,33,355.30
2015,12,25,10,34,357.60
2015,12,25,10,35,359.40
2015,12,25,10,36,361.10
2015,12,25,10,37,364.60
2015,12,25,10,38,369.90
2015,12,25,10,39,373.80
2015,12,25,10,40,378.40
2015,12,25,10,41,382.20
2015,12,25,10,42,386.20
2015,12,25,10,43,390.10
2015,12,25,10,44,393.30
2015,12,25,10,45,395.60
2015,12,25,10,46,396.90
2015,12,25,10,47,401.00
2015,12,25,10,48,401.80
2015,12,25,10,49,404.70
2015,12,25,10,50,406.00
2015,12,25,10,51,407.30
2015,12,25,10,52,409.60
2015,12,25,10,53,410.90
2015,12,25,10,54,415.00
2015,12,25,10,55,415.50
2015,12,25,10,56,417.40
2015,12,25,10,57,419.00
2015,12,25,10,58,414.30
2015,12,25,10,59,415.70
2015,12,25,11,00,421.40
2015,12,25,11,01,424.10
2015,12,25,11,02,425.50
2015,12,25,11,03,427.70
2015,12,25,11,04,430.00
2015,12,25,11,05,432.90
2015,12,25,11,06,435.60
2015,12,25,11,07,437.90
2015,12,25,11,08,441.30
2015,12,25,11,09,443.80
2015,12,25,11,10,446.00
2015,12,25,11,11,447.00
2015,12,25,11,12,450.50
2015,12,25,11,13,453.60
2015,12,25,11,14,456.70
2015,12,25,11,15,459.00
2015,12,25,11,16,459.00
2015,12,25,11,17,456.10
2015,12,25,11,18,448.90
2015,12,25,11,19,444.00
2015,12,25,11,20,443.00
2015,12,25,11,21,441.20
2015,12,25,11,22,441.00
2015,12,25,11,23,440.20
2015,12,25,11,24,437.20
2015,12,25,11,25,436.00
2015,12,25,11,26,437.30
2015,12,25,11,27,438.00
2015,12,25,11,28,438.80
2015,12,25,11,29,436.70
2015,12,25,11,30,442.50
2015,12,25,11,31,446.00
2015,12,25,11,32,445.40
2015,12,25,11,33,445.00
2015,12,25,11,34,443.50
2015,12,25,11,35,441.20
2015,12,25,11,36,443.00
2015,12,25,11,37,443.00
2015,12,25,11,38,443.80
2015,12,25,11,39,445.50
2015,12,25,11,40,447.30
2015,12,25,11,41,446.40
2015,12,25,11,42,446.10
2015,12,25,11,43,447.70
2015,12,25,11,44,445.70
2015,12,25,11,45,445.00
2015,12,25,11,46,445.00
2015,12,25,11,47,445.70
2015,12,25,11,48,428.90
2015,12,25,11,49,422.20
2015,12,25,11,50,422.40
2015,12,25,11,51,425.00
2015,12,25,11,52,424.60
2015,12,25,11,53,423.00
2015,12,25,11,54,420.70
2015,12,25,11,55,418.40
2015,12,25,11,56,417.10
2015,12,25,11,57,418.00
2015,12,25,11,58,418.00
2015,12,25,11,59,416.80
2015,12,25,12,00,412.40
2015,12,25,12,01,410.00
2015,12,25,12,02,410.80
2015,12,25,12,03,410.10
2015,12,25,12,04,407.30
2015,12,25,12,05,403.30
2015,12,25,12,06,403.60
2015,12,25,12,07,403.00
2015,12,25,12,08,404.90
2015,12,25,12,09,404.40
2015,12,25,12,10,404.00
2015,12,25,12,11,403.00
2015,12,25,12,12,403.00
2015,12,25,12,13,403.00
2015,12,25,12,14,402.00
2015,12,25,12,15,401.00
2015,12,25,12,16,401.00
2015,12,25,12,17,401.00
2015,12,25,12,18,400.40
2015,12,25,12,19,397.00
2015,12,25,12,20,397.00
2015,12,25,12,21,396.50
2015,12,25,12,22,394.70
2015,12,25,12,23,394.00
2015,12,25,12,24,393.90
2015,12,25,12,25,392.00
2015,12,25,12,26,391.50
2015,12,25,12,27,390.00
2015,12,25,12,28,390.00
2015,12,25,12,29,390.00
2015,12,25,12,30,388.40
2015,12,25,12,31,388.00
2015,12,25,12,32,387.90
2015,12,25,12,33,386.40
2015,12,25,12,34,385.00
2015,12,25,12,35,382.90
2015,12,25,12,36,380.30
2015,12,25,12,37,380.00
2015,12,25,12,38,377.60
2015,12,25,12,39,360.20
2015,12,25,12,40,350.60
2015,12,25,12,41,346.30
2015,12,25,12,42,333.20
2015,12,25,12,43,320.20
2015,12,25,12,44,282.40
2015,12,25,12,45,261.20
2015,12,25,12,46,289.20
2015,12,25,12,47,299.40
2015,12,25,12,48,266.70
2015,12,25,12,49,205.60
2015,12,25,12,50,184.30
2015,12,25,12,51,187.30
2015,12,25,12,52,206.30
2015,12,25,12,53,254.60
2015,12,25,12,54,293.00
2015,12,25,12,55,264.10
2015,12,25,12,56,269.30
2015,12,25,12,57,282.70
2015,12,25,12,58,257.80
2015,12,25,12,59,184.50
2015,12,25,13,00,110.40
2015,12,25,13,01,82.00
2015,12,25,13,02,58.40
2015,12,25,13,03,52.00
2015,12,25,13,04,49.20
2015,12,25,13,05,47.00
2015,12,25,13,06,48.60
2015,12,25,13,07,44.70
2015,12,25,13,08,50.80
2015,12,25,13,09,59.70
2015,12,25,13,10,66.00
2015,12,25,13,11,53.70
2015,12,25,13,12,37.80
2015,12,25,13,13,33.20
2015,12,25,13,14,32.00
2015,12,25,13,15,32.00
2015,12,25,13,16,32.00
2015,12,25,13,17,32.00
2015,12,25,13,18,32.00
2015,12,25,13,19,32.00
2015,12,25,13,20,32.00
2015,12,25,13,21,32.40
2015,12,25,13,22,35.00
2015,12,25,13,23,34.20
2015,12,25,13,24,32.50
2015,12,25,13,25,32.00
2015,12,25,13,26,32.80
2015,12,25,13,27,36.80
2015,12,25,13,28,38.50
2015,12,25,13,29,37.90
2015,12,25,13,30,66.00
2015,12,25,13,31,133.10
2015,12,25,13,32,156.00
2015,12,25,13,33,129.90
2015,12,25,13,34,118.40
2015,12,25,13,35,115.80
2015,12,25,13,36,125.60
2015,12,25,13,37,116.90
2015,12,25,13,38,129.20
2015,12,25,13,39,142.30
2015,12,25,13,40,136.70
2015,12,25,13,41,106.30
2015,12,25,13,42,106.40
2015,12,25,13,43,138.00
2015,12,25,13,44,161.50
2015,12,25,13,45,184.50
2015,12,25,13,46,206.20
2015,12,25,13,47,205.60
2015,12,25,13,48,190.70
2015,12,25,13,49,166.30
2015,12,25,13,50,166.10
2015,12,25,13,51,187.80
2015,12,25,13,52,211.30
2015,12,25,13,53,218.70
2015,12,25,13,54,204.20
2015,12,25,13,55,182.30
2015,12,25,13,56,158.70
2015,12,25,13,57,163.60
2015,12,25,13,58,164.20
2015,12,25,13,59,159.20
2015,12,25,14,00,140.00
2015,12,25,14,01,115.80
2015,12,25,14,02,96.80
2015,12,25,14,03,108.70
2015,12,25,14,04,100.30
2015,12,25,14,05,78.40
2015,12,25,14,06,71.40
2015,12,25,14,07,73.40
2015,12,25,14,08,81.90
2015,12,25,14,09,82.90
2015,12,25,14,10,78.60
2015,12,25,14,11,88.00
2015,12,25,14,12,83.50
2015,12,25,14,13,64.60
2015,12,25,14,14,47.30
2015,12,25,14,15,40.10
2015,12,25,14,16,29.40
2015,12,25,14,17,34.00
2015,12,25,14,18,44.70
2015,12,25,14,19,66.60
2015,12,25,14,20,70.70
2015,12,25,14,21,56.30
2015,12,25,14,22,60.00
2015,12,25,14,23,64.70
2015,12,25,14,24,67.10
2015,12,25,14,25,83.10
2015,12,25,14,26,97.90
2015,12,25,14,27,104.60
2015,12,25,14,28,105.00
2015,12,25,14,29,107.90
2015,12,25,14,30,102.50
2015,12,25,14,31,94.30
2015,12,25,14,32,87.90
2015,12,25,14,33,81.40
2015,12,25,14,34,74.30
2015,12,25,14,35,70.00
2015,12,25,14,36,75.40
2015,12,25,14,37,68.90
2015,12,25,14,38,48.70
2015,12,25,14,39,48.10
2015,12,25,14,40,52.90
2015,12,25,14,41,58.10
2015,12,25,14,42,56.20
2015,12,25,14,43,50.10
2015,12,25,14,44,44.60
2015,12,25,14,45,42.30
2015,12,25,14,46,44.50
2015,12,25,14,47,43.10
2015,12,25,14,48,38.00
2015,12,25,14,49,38.30
2015,12,25,14,50,39.00
2015,12,25,14,51,39.90
2015,12,25,14,52,39.90
2015,12,25,14,53,39.00
2015,12,25,14,54,39.40
2015,12,25,14,55,39.50
2015,12,25,14,56,36.40
2015,12,25,14,57,36.60
2015,12,25,14,58,39.80
2015,12,25,14,59,43.70
2015,12,25,15,00,41.50
2015,12,25,15,01,39.60
2015,12,25,15,02,39.00
2015,12,25,15,03,39.60
2015,12,25,15,04,43.10
2015,12,25,15,05,46.90
2015,12,25,15,06,53.40
2015,12,25,15,07,56.50
2015,12,25,15,08,58.00
2015,12,25,15,09,57.00
2015,12,25,15,10,54.70
2015,12,25,15,11,51.70
2015,12,25,15,12,47.30
2015,12,25,15,13,43.70
2015,12,25,15,14,42.00
2015,12,25,15,15,42.00
2015,12,25,15,16,42.00
2015,12,25,15,17,42.00
2015,12,25,15,18,40.40
2015,12,25,15,19,40.00
2015,12,25,15,20,39.00
2015,12,25,15,21,39.00
2015,12,25,15,22,39.00
2015,12,25,15,23,38.00
2015,12,25,15,24,37.00
2015,12,25,15,25,35.40
2015,12,25,15,26,35.00
2015,12,25,15,27,34.80
2015,12,25,15,28,33.00
2015,12,25,15,29,33.00
2015,12,25,15,30,33.00
2015,12,25,15,31,32.30
2015,12,25,15,32,32.00
2015,12,25,15,33,32.00
2015,12,25,15,34,32.00
2015,12,25,15,35,32.00
2015,12,25,15,36,32.00
2015,12,25,15,37,32.00
2015,12,25,15,38,32.00
2015,12,25,15,39,32.00
2015,12,25,15,40,32.00
2015,12,25,15,41,32.00
2015,12,25,15,42,32.00
2015,12,25,15,43,32.00
2015,12,25,15,44,32.00
2015,12,25,15,45,32.00
2015,12,25,15,46,32.00
2015,12,25,15,47,31.90
2015,12,25,15,48,30.00
2015,12,25,15,49,30.00
2015,12,25,15,50,29.20
2015,12,25,15,51,28.00
2015,12,25,15,52,26.70
2015,12,25,15,53,26.00
2015,12,25,15,54,25.10
2015,12,25,15,55,24.70
2015,12,25,15,56,23.00
2015,12,25,15,57,22.30
2015,12,25,15,58,21.00
2015,12,25,15,59,21.00
2015,12,25,16,00,21.00
2015,12,25,16,01,19.20
2015,12,25,16,02,19.00
2015,12,25,16,03,19.00
2015,12,25,16,04,18.60
2015,12,25,16,05,18.00
2015,12,25,16,06,18.00
2015,12,25,16,07,18.00
2015,12,25,16,08,16.20
2015,12,25,16,09,16.00
2015,12,25,16,10,15.50
2015,12,25,16,11,13.30
2015,12,25,16,12,11.50
2015,12,25,16,13,11.00
2015,12,25,16,14,9.50
2015,12,25,16,15,7.20
2015,12,25,16,16,5.00
2015,12,25,16,17,5.00
2015,12,25,16,18,5.00
2015,12,25,16,19,2.40
2015,12,25,16,20,0.00
2015,12,25,16,21,0.00
2015,12,25,16,22,0.00
2015,12,25,16,23,0.00
2015,12,25,16,24,0.00
2015,12,25,16,25,0.00
2015,12,25,16,26,0.00
2015,12,25,16,27,0.00
2015,12,25,16,28,0.00
2015,12,25,16,29,0.00
2015,12,25,16,30,0.00
2015,12,25,16,31,0.00
2015,12,25,16,32,0.00
2015,12,25,16,33,0.00
2015,12,25,16,34,0.00
2015,12,25,16,35,0.00
2015,12,25,16,36,0.00
2015,12,25,16,37,0.00
2015,12,25,16,38,0.00
2015,12,25,16,39,0.00
2015,12,25,16,40,0.00
2015,12,25,16,41,0.00
2015,12,25,16,42,0.00
2015,12,25,16,43,0.00
2015,12,25,16,44,0.00
2015,12,25,16,45,0.00
2015,12,25,16,46,0.00
2015,12,25,16,47,0.00
2015,12,25,16,48,0.00
2015,12,25,16,49,0.00
2015,12,25,16,50,0.00
2015,12,25,16,51,0.00
2015,12,25,16,52,0.00
2015,12,25,16,53,0.00
2015,12,25,16,54,0.00
2015,12,25,16,55,0.00
2015,12,25,16,56,0.00
2015,12,25,16,57,0.00
2015,12,25,16,58,0.00
2015,12,25,16,59,0.00
2015,12,25,17,00,0.00
2015,12,25,17,01,0.00
2015,12,25,17,02,0.00
2015,12,25,17,03,0.00
2015,12,25,17,04,0.00
2015,12,25,17,05,0.00
2015,12,25,17,06,0.00
2015,12,25,17,07,0.00
2015,12,25,17,08,0.00
2015,12,25,17,09,0.00
2015,12,25,17,10,0.00
2015,12,25,17,11,0.00
2015,12,25,17,12,0.00
2015,12,25,17,13,0.00
2015,12,25,17,14,0.00
2015,12,25,17,15,0.00
2015,12,25,17,16,0.00
2015,12,25,17,17,0.00
2015,12,25,17,18,0.00
2015,12,25,17,19,0.00
2015,12,25,17,20,0.00
2015,12,25,17,21,0.00
2015,12,25,17,22,0.00
2015,12,25,17,23,0.00
2015,12,25,17,24,0.00
2015,12,25,17,25,0.00
2015,12,25,17,26,0.00
2015,12,25,17,27,0.00
2015,12,25,17,28,0.00
2015,12,25,17,29,0.00
2015,12,25,17,30,0.00
2015,12,25,17,31,0.00
2015,12,25,17,32,0.00
2015,12,25,17,33,0.00
2015,12,25,17,34,0.00